Weather History for Syracuse, NY

Change the Weather History Date:

Thursday, June 20, 2013

  Actual Average Record
Temperature  
Mean Temperature 63 °F 68 °F  
Max Temperature 79 °F 79 °F 96 °F (1931)
Min Temperature 46 °F 58 °F 41 °F (1918)
Degree Days  
Heating Degree Days 2 1  
Month to date heating degree days 61 51  
Since 1 June heating degree days 61 51  
Since 1 July heating degree days 6147 6641  
Cooling Degree Days 0 4  
Month to date cooling degree days 27 60  
Year to date cooling degree days 79 90  
Since 1 June cooling degree days 27 60  
Growing Degree Days 12 (Base 50)    
Moisture  
Dew Point 47 °F    
Average Humidity 62    
Maximum Humidity 86    
Minimum Humidity 37    
Precipitation  
Precipitation 0.00 in 0.11 in 1.90 in (1963)
Month to date precipitation 4.87 2.19  
Year to date precipitation 18.81 16.12  
Snow  
Snow 0.00 in 0.00 in 0.00 in (2002)
Month to date snowfall 0.0 0.0  
Since 1 June snowfall 0.0 0.0  
Since 1 July snowfall 115.4 123.8  
Snow Depth 0.00 in    
Sea Level Pressure  
Sea Level Pressure 30.22 in    
Wind  
Wind Speed 3 mph (North)    
Max Wind Speed 14 mph    
Max Gust Speed 18 mph    
Visibility 10 miles    
Events      
T = Trace of Precipitation, MM = Missing Value Source: NWS Daily Summary

Daily Weather History Graph

Daily Weather History Graph

Search for Another Location

Airport:

Trip Planner

Search our weather history database for the weather conditions in past years. The results will help you decide how hot, cold, wet, or windy it might be!

Date:

Astronomy

Jun. 20, 2013 Rise Set
Actual Time 5:24 AM EDT 8:47 PM EDT
Civil Twilight 4:49 AM EDT 9:22 PM EDT
Nautical Twilight 4:03 AM EDT 10:09 PM EDT
Astronomical Twilight 3:05 AM EDT 11:06 PM EDT
Moon 5:44 PM EDT 2:53 AM EDT
Length of Visible Light 16h 33m
Length of Day
15h 22m
Waxing Gibbous, 89% of the Moon is Illuminated
Jun 20
Waxing Gibbous
Jun 23
Full
Jun 30
Last Quarter
Jul 8
New
Jul 15
First Quarter

Hourly Weather History & Observations

Time (EDT) Temp. Windchill Dew Point Humidity Pressure Visibility Wind Dir Wind Speed Gust Speed Precip Events Conditions
12:54 AM 51.1 °F - 45.0 °F 80% 30.21 in 10.0 mi ESE 3.5 mph - N/A   Partly Cloudy
1:54 AM 51.1 °F - 44.1 °F 77% 30.21 in 10.0 mi Calm Calm - N/A   Clear
2:54 AM 50.0 °F - 43.0 °F 77% 30.21 in 10.0 mi SE 3.5 mph - N/A   Clear
3:54 AM 48.0 °F - 42.1 °F 80% 30.21 in 10.0 mi SSE 3.5 mph - N/A   Clear
4:54 AM 46.9 °F - 42.1 °F 83% 30.22 in 10.0 mi Calm Calm - N/A   Clear
5:54 AM 46.0 °F 43.9 °F 42.1 °F 86% 30.24 in 10.0 mi ESE 4.6 mph - N/A   Clear
6:54 AM 50.0 °F - 44.1 °F 80% 30.25 in 10.0 mi SE 3.5 mph - N/A   Clear
7:54 AM 54.0 °F - 46.9 °F 77% 30.25 in 10.0 mi East 3.5 mph - N/A   Scattered Clouds
8:54 AM 59.0 °F - 48.0 °F 67% 30.25 in 10.0 mi Calm Calm - N/A   Scattered Clouds
9:54 AM 64.0 °F - 48.0 °F 56% 30.26 in 10.0 mi Calm Calm - N/A   Scattered Clouds
10:54 AM 66.9 °F - 45.0 °F 45% 30.26 in 10.0 mi Calm Calm - N/A   Scattered Clouds
11:54 AM 70.0 °F - 46.9 °F 44% 30.24 in 10.0 mi Calm Calm - N/A   Scattered Clouds
12:54 PM 73.0 °F - 48.9 °F 42% 30.22 in 10.0 mi Variable 3.5 mph - N/A   Scattered Clouds
1:54 PM 75.9 °F - 51.1 °F 42% 30.21 in 10.0 mi Variable 4.6 mph - N/A   Scattered Clouds
2:54 PM 78.1 °F - 52.0 °F 40% 30.21 in 10.0 mi WNW 8.1 mph - N/A   Mostly Cloudy
3:54 PM 78.1 °F - 51.1 °F 39% 30.20 in 10.0 mi WNW 9.2 mph - N/A   Mostly Cloudy
4:54 PM 78.1 °F - 50.0 °F 37% 30.19 in 10.0 mi NNW 4.6 mph - N/A   Scattered Clouds
5:54 PM 77.0 °F - 51.1 °F 40% 30.19 in 10.0 mi NW 10.4 mph - N/A   Mostly Cloudy
6:54 PM 73.9 °F - 52.0 °F 46% 30.19 in 10.0 mi NNW 8.1 mph - N/A   Scattered Clouds
7:54 PM 71.1 °F - 48.0 °F 44% 30.20 in 10.0 mi NNW 4.6 mph - N/A   Scattered Clouds
8:54 PM 66.9 °F - 43.0 °F 42% 30.20 in 10.0 mi WNW 4.6 mph - N/A   Mostly Cloudy
9:54 PM 64.0 °F - 45.0 °F 50% 30.22 in 10.0 mi Calm Calm - N/A   Scattered Clouds
10:54 PM 60.1 °F - 46.9 °F 62% 30.22 in 10.0 mi Calm Calm - N/A   Scattered Clouds
11:54 PM 57.9 °F - 46.0 °F 65% 30.23 in 10.0 mi Calm Calm - N/A   Partly Cloudy